Flag for Colombia Weather past 2 weeks in Cali, Colombia

Now
79 °F

Passing clouds.


Feels Like: 81 °F
Forecast: 69 / 83 °F
Wind: 10 mph from Northwest

Location: Cali / Alfonso Bonillaaragon

Current Time: Sep 23, 2014 at 7:49:27 PM

Latest Report: Sep 23, 2014 at 7:00 PM


Visibility: N/A

Pressure: 29.90 "Hg

Humidity: 61%

Dew point: 64 °F

Location of CaliLocation

Historic Weather in Cali — Graph

°F

Cali temperature yesterday

Maximum temperature yesterday: 82 °F (at 3:00 PM)
Minimum temperature yesterday: 66 °F (at 9:00 PM)
Average temperature yesterday: 71 °F

Past Weeks' High & Low Weather Summary

 TemperatureHumidityPressure
High93 °F (Sep 9, 2:00 PM)94% (Sep 10, 3:00 AM)30.14 "Hg (Sep 10, 3:00 AM)
Low63 °F (Sep 23, 6:00 AM)36% (Sep 9, 2:00 PM)28.19 "Hg (Sep 15, 2:00 PM)
Average75 °F72%29.97 "Hg
* Reported Sep 8 6:00 PM — Sep 23 6:00 PM, Cali, Weather by CustomWeather, © 2014

Note: Actual official high and low records may vary slightly from our data, if they occured in-between our weather recording intervals... More about our weather records

Advertising

Cali weather history for previous 24 hours

 ConditionsComfort  
Time TempWeatherWind HumidityBarometerVisibility
6:00 PM
Sep 23
82 °FBroken clouds.7 mph55%29.88 "HgN/A
5:00 PM84 °FBroken clouds.7 mph58%29.86 "HgN/A
4:00 PM86 °FBroken clouds.7 mph46%29.86 "HgN/A
3:00 PM86 °FPartly sunny.5 mph49%29.88 "Hg6 mi
2:00 PM84 °FScattered clouds.5 mph51%29.91 "Hg6 mi
1:00 PM82 °FScattered clouds.No wind55%29.95 "Hg6 mi
12:00 PM77 °FScattered clouds.3 mph65%30.00 "Hg5 mi
11:00 AM73 °FPartly sunny.3 mph74%30.03 "Hg3 mi
10:00 AM70 °FPartly sunny.3 mph83%30.06 "Hg3 mi
9:00 AM68 °FPartly sunny.3 mph88%30.07 "Hg2 mi
8:00 AM66 °FFog.5 mph94%30.06 "Hg2 mi
7:00 AM64 °FFog.6 mph94%30.04 "Hg2 mi
6:00 AM63 °FFog.3 mph94%30.02 "Hg2 mi
5:00 AM64 °FFog.No wind94%30.00 "Hg2 mi
4:00 AM64 °FFog.2 mph94%30.00 "Hg1 mi
3:00 AM66 °FPassing clouds.No wind88%30.00 "HgN/A
2:00 AM66 °FPassing clouds.2 mph88%30.02 "HgN/A
1:00 AM66 °FLow clouds.No wind88%30.05 "HgN/A
12:00 AM66 °FOvercast.No wind88%30.05 "HgN/A
11:00 PM
Sep 22
66 °FOvercast.3 mph94%30.06 "Hg6 mi
10:00 PM66 °FScattered showers. Overcast.2 mph94%30.07 "Hg6 mi
9:00 PM66 °FDrizzle. Overcast.2 mph94%30.08 "Hg5 mi
7:00 PM68 °FScattered showers. Partly cloudy.8 mph88%30.06 "Hg5 mi
Weather by CustomWeather, © 2014

See weather overviewHow to use our weather pages